Weather History for Marianna, FL

Change the Weather History Date:

Saturday, March 8, 2014

  Actual Average Record
Temperature  
Mean Temperature 53 °F 59 °F  
Max Temperature 71 °F 71 °F 80 °F (2012)
Min Temperature 35 °F 47 °F 34 °F (2013)
Degree Days  
Heating Degree Days 12    
Month to date heating degree days 102  
Since 1 July heating degree days 1562  
Cooling Degree Days 0    
Month to date cooling degree days 0  
Year to date cooling degree days 9  
Growing Degree Days 4 (Base 50)    
Moisture  
Dew Point 44 °F    
Average Humidity 70    
Maximum Humidity 100    
Minimum Humidity 40    
Precipitation  
Precipitation 0.00 in 0.16 in 0.92 in (1998)
Month to date precipitation 1.07 1.20  
Year to date precipitation 8.40 11.18  
Sea Level Pressure  
Sea Level Pressure 30.15 in    
Wind  
Wind Speed 2 mph (West)    
Max Wind Speed 10 mph    
Max Gust Speed 14 mph    
Visibility 10 miles    
Events      
T = Trace of Precipitation, MM = Missing Value Source: NWS Daily Summary

Daily Weather History Graph

Daily Weather History Graph

Search for Another Location

Airport:

Trip Planner

Search our weather history database for the weather conditions in past years. The results will help you decide how hot, cold, wet, or windy it might be!

Date:

Astronomy

Mar. 08, 2014 Rise Set
Actual Time 5:59 AM CST 5:44 PM CST
Civil Twilight 5:35 AM CST 6:08 PM CST
Nautical Twilight 5:07 AM CST 6:36 PM CST
Astronomical Twilight 4:39 AM CST 7:04 PM CST
Moon 11:04 AM CST (3/8) 12:17 AM CST (3/8)
Length of Visible Light 12h 33m
Length of Day
11h 45m
First Quarter, 52% of the Moon is Illuminated
Mar 8
First Quarter
Mar 16
Full
Mar 23
Last Quarter
Mar 30
New
Apr 7
First Quarter

Hourly Weather History & Observations

Time (CST) Temp. Dew Point Humidity Pressure Visibility Wind Dir Wind Speed Gust Speed Precip Events Conditions
12:53 AM 39.9 °F 39.9 °F 100% 30.08 in 10.0 mi Calm Calm - N/A   Clear
1:53 AM 41.0 °F 39.9 °F 96% 30.09 in 10.0 mi Calm Calm - N/A   Clear
2:53 AM 39.9 °F 39.9 °F 100% 30.09 in 7.0 mi Calm Calm - N/A   Clear
3:53 AM 39.0 °F 37.9 °F 96% 30.10 in 10.0 mi Calm Calm - N/A   Clear
4:53 AM 37.9 °F 37.9 °F 100% 30.12 in 9.0 mi Calm Calm - N/A   Clear
5:53 AM 37.0 °F 37.0 °F 100% 30.15 in 10.0 mi Calm Calm - N/A   Clear
6:53 AM 39.9 °F 39.9 °F 100% 30.18 in 10.0 mi Calm Calm - N/A   Clear
7:53 AM 48.0 °F 45.0 °F 89% 30.20 in 10.0 mi Calm Calm - N/A   Clear
8:53 AM 55.0 °F 46.0 °F 72% 30.21 in 10.0 mi Calm Calm - N/A   Clear
9:53 AM 57.9 °F 43.0 °F 58% 30.20 in 10.0 mi SE 4.6 mph - N/A   Clear
10:53 AM 60.1 °F 44.1 °F 55% 30.21 in 10.0 mi Calm Calm - N/A   Clear
11:53 AM 64.0 °F 45.0 °F 50% 30.18 in 10.0 mi NW 3.5 mph - N/A   Clear
12:53 PM 66.9 °F 46.0 °F 47% 30.15 in 10.0 mi Calm Calm - N/A   Clear
1:53 PM 69.1 °F 46.0 °F 44% 30.13 in 10.0 mi Calm Calm - N/A   Clear
2:53 PM 70.0 °F 45.0 °F 41% 30.12 in 10.0 mi West 10.4 mph - N/A   Partly Cloudy
3:53 PM 69.1 °F 45.0 °F 42% 30.12 in 10.0 mi West 5.8 mph - N/A   Clear
4:53 PM 68.0 °F 45.0 °F 43% 30.11 in 10.0 mi WNW 4.6 mph - N/A   Clear
5:53 PM 62.1 °F 48.0 °F 60% 30.12 in 10.0 mi Calm Calm - N/A   Clear
6:53 PM 55.9 °F 50.0 °F 80% 30.12 in 10.0 mi Calm Calm - N/A   Clear
7:53 PM 55.9 °F 48.0 °F 75% 30.15 in 10.0 mi WSW 4.6 mph - N/A   Clear
8:53 PM 54.0 °F 46.9 °F 77% 30.18 in 10.0 mi SW 4.6 mph - N/A   Clear
9:53 PM 53.1 °F 46.9 °F 80% 30.18 in 10.0 mi Calm Calm - N/A   Clear
10:53 PM 50.0 °F 46.9 °F 89% 30.18 in 10.0 mi Calm Calm - N/A   Clear
11:53 PM 46.9 °F 46.0 °F 97% 30.18 in 10.0 mi Calm Calm - N/A   Clear